Wind_Speed
5 6 5 5 6 4 4 7 9 11 6 9 8 15 19 20 16 7 13 21 19 21 22 20 21 19 15 20 27 26 25 24 29 29 30 32 30 31 28 26 23 22 20 19
1 5 5 3 2 4 3 7 8 5 10 14 11 18 19 2 4 14 18 19 20 23 22 23 20 20 17 19 12 19 25 25 24 28 28 28 27 29 29 26 24 25 25 22
4 5 2 2 6 6 6 4 7 4 13 13 7 7 3 5 7 15 22 18 21 20 22 25 24 24 25 24 19 17 20 20 23 26 25 25 24 25 23 23 19 21 24 22
3 3 1 3 7 4 6 5 4 7 8 4 8 5 5 4 1 8 16 18 20 20 19 21 22 24 24 25 24 22 20 20 19 23 25 25 27 28 31 24 25 24 19 17
2 4 3 4 3 4 3 7 8 6 5 6 2 1 5 6 5 8 13 13 16 14 13 16 20 23 25 24 26 25 23 22 20 22 25 25 29 27 26 25 22 15 18 19
2 4 2 4 5 4 8 6 6 2 1 2 6 4 5 3 3 7 10 16 13 12 16 17 21 24 29 19 17 14 14 19 18 17 22 25 26 27 27 21 19 18 22 17
3 4 3 1 4 4 1 5 1 2 1 4 3 1 10 5 5 7 10 17 12 14 18 20 20 24 25 23 18 12 9 13 18 16 19 22 25 25 25 22 17 15 17 13
1 4 5 8 2 2 0 3 3 3 4 5 6 5 6 6 9 12 12 15 13 13 17 16 17 24 22 26 18 10 6 6 12 14 15 17 20 22 23 21 17 18 16 17
5 2 3 7 2 2 2 1 2 2 5 4 4 6 1 6 7 13 15 15 13 13 11 13 13 18 22 21 19 12 7 1 2 8 9 12 18 19 18 16 16 15 15 15
2 5 3 6 2 7 4 4 1 1 4 5 6 5 5 7 9 9 10 14 10 11 9 12 15 16 19 15 14 15 13 9 4 6 9 11 11 9 8 11 10 17 18 17
4 2 2 3 6 5 3 3 5 2 4 2 4 6 4 8 8 9 10 13 9 5 7 10 13 13 13 15 17 16 17 13 10 7 6 9 10 10 9 12 14 17 20 21
3 3 4 7 3 4 3 4 4 3 2 3 3 7 5 7 8 12 15 11 7 6 8 9 12 12 11 9 8 8 8 9 11 9 8 8 8 8 7 9 10 8 11 11
3 3 4 1 3 2 4 5 6 1 4 6 2 6 5 8 8 13 13 13 9 10 9 9 9 8 9 8 6 6 7 6 9 9 9 7 6 4 1 4 3 8 14 10
0 4 6 5 4 4 6 6 7 7 3 4 10 13 11 4 6 10 17 16 14 13 12 11 9 8 8 7 6 5 5 5 4 5 5 5 4 3 0 2 2 4 6 8
3 5 7 11 16 16 18 17 14 13 13 7 4 9 12 10 12 21 14 15 14 15 14 13 11 10 8 6 6 4 3 2 2 3 4 4 3 3 3 4 4 4 6 7
5 4 7 12 18 17 18 18 20 21 20 21 22 27 20 30 12 16 6 9 14 16 16 15 15 12 10 7 5 4 4 3 2 2 3 3 4 4 4 4 4 4 5 6
5 3 5 5 10 13 11 12 18 9 7 17 17 22 8 6 6 9 12 12 15 17 17 17 18 13 10 10 8 6 5 4 4 4 4 5 5 6 6 6 6 7 7 7
5 2 3 5 8 3 5 2 1 14 9 15 12 8 8 12 20 21 17 16 18 19 19 19 19 16 14 12 9 8 7 6 6 6 6 7 7 7 7 7 8 8 8 8
9 3 4 3 3 11 9 2 4 5 7 15 17 6 13 10 15 21 14 24 24 18 18 20 19 17 16 13 11 9 8 8 8 8 8 9 9 10 10 10 11 11 12 11
4 6 4 2 3 5 2 3 1 2 5 6 11 10 7 4 1 5 9 7 14 16 17 20 20 18 17 14 12 10 9 9 10 10 10 11 12 12 11 11 12 12 12 12
5 7 12 8 5 9 7 8 6 1 5 11 14 12 11 5 10 13 20 18 13 14 20 22 21 19 16 15 13 12 11 11 12 12 12 12 12 13 12 11 12 12 12 11
8 7 5 5 6 10 14 8 7 5 5 15 15 14 14 17 20 21 21 23 18 17 20 22 22 20 18 18 16 15 14 13 14 13 13 13 13 13 12 13 14 13 13 13
4 8 4 10 7 5 24 15 15 11 10 15 17 15 17 23 25 22 21 20 21 19 21 21 21 20 20 20 18 16 14 15 15 13 13 13 13 13 13 14 14 14 13 14
5 14 5 2 8 17 25 30 31 28 27 25 25 24 22 22 21 23 22 19 21 20 21 23 23 24 24 23 20 17 17 16 14 13 13 14 14 14 13 13 13 13 14 15
6 1 4 11 22 29 40 42 37 30 27 26 25 24 23 21 21 21 22 23 23 24 24 25 26 27 27 25 22 19 18 17 15 14 13 13 14 14 15 14 14 15 14 15
20 17 8 13 30 18 25 16 11 15 18 20 25 23 22 22 26 23 24 25 24 24 25 27 28 28 27 26 23 19 18 16 14 14 13 14 14 14 15 15 15 13 14 17
Wind_Direction
28 58 55 40 22 5 7 310 295 283 26 321 272 292 287 281 284 310 9 5 345 332 320 319 311 312 322 303 294 290 277 273 254 253 251 243 235 229 224 222 225 230 239 237
118 80 58 38 357 315 250 268 286 326 355 321 289 292 290 93 113 77 27 354 339 331 329 329 319 315 305 291 291 282 292 277 259 252 247 249 231 236 235 230 224 224 231 235
53 73 88 314 298 285 286 316 4 329 327 285 321 284 155 160 210 39 7 346 335 331 333 333 328 311 304 297 290 279 270 276 262 249 248 238 240 227 231 230 235 236 239 244
85 124 253 287 271 360 302 33 356 316 345 312 16 288 325 111 22 21 348 341 330 323 331 332 327 324 313 298 290 284 269 257 249 250 242 242 230 227 221 228 218 224 243 247
181 191 229 273 28 358 307 355 310 300 280 315 311 357 258 45 305 322 338 324 305 312 317 336 355 352 335 315 296 286 273 255 247 237 235 235 238 230 223 230 233 232 246 246
221 149 234 329 325 280 317 310 313 216 277 269 225 128 268 251 248 303 318 301 290 314 322 317 325 333 345 333 313 298 288 278 247 241 231 232 234 229 224 214 222 223 243 253
286 181 143 252 277 173 328 353 334 343 267 238 100 61 251 196 211 238 276 292 316 314 321 330 338 337 347 353 341 332 307 280 243 240 227 235 232 221 225 223 227 234 244 258
347 308 195 158 247 270 132 104 42 314 338 293 179 239 264 182 204 245 262 271 291 305 316 331 336 349 1 2 4 358 322 272 242 232 228 224 226 220 218 224 227 239 256 263
355 283 111 183 257 256 119 19 34 299 250 275 236 258 221 181 216 233 243 259 273 295 315 328 323 358 360 3 14 20 34 329 211 220 234 231 229 220 223 221 241 246 257 261
347 300 275 118 243 226 245 353 289 186 308 298 281 254 237 217 231 237 247 247 258 293 321 328 336 1 10 12 27 38 50 53 109 175 200 217 214 226 218 226 251 256 258 256
313 184 284 154 199 174 171 238 215 232 238 266 305 275 200 213 208 230 249 255 262 284 298 331 334 341 352 8 17 33 37 49 71 104 173 203 213 221 239 253 251 255 256 263
77 312 269 238 87 67 335 281 257 138 259 292 283 269 148 176 180 211 251 261 255 266 302 324 332 345 356 345 355 354 23 45 61 76 117 153 175 180 223 236 239 253 278 281
104 260 311 316 50 89 224 210 233 253 49 226 259 263 176 175 186 211 236 264 260 273 281 303 320 316 316 336 351 0 17 36 45 53 61 82 92 139 61 316 279 265 272 290
3 259 222 228 265 346 258 272 209 185 193 247 234 278 284 260 234 218 217 231 250 263 273 283 295 306 307 323 336 352 10 23 53 54 60 68 68 67 89 257 270 275 283 288
241 266 260 267 275 277 270 264 246 232 215 227 254 287 283 309 308 293 267 218 223 242 261 274 283 290 293 296 305 320 349 21 20 35 34 23 11 348 325 310 301 290 289 292
205 269 312 293 267 257 262 250 242 239 245 242 253 271 279 277 290 319 241 212 219 234 242 249 258 264 272 273 274 278 289 305 311 340 359 356 347 341 333 321 310 302 302 303
207 220 348 267 335 310 288 268 229 218 224 225 241 250 283 302 306 286 284 260 243 241 243 240 253 260 258 262 270 274 278 279 295 314 329 336 338 336 332 328 325 322 320 316
260 234 212 277 312 290 240 111 6 212 231 223 248 264 272 295 296 288 264 258 251 244 235 235 244 250 247 254 256 261 268 278 289 303 318 325 324 321 317 315 319 320 323 323
216 198 282 267 282 278 286 229 173 164 261 228 234 248 257 290 310 302 315 267 253 253 249 241 247 247 245 248 251 256 268 278 287 296 305 315 318 319 321 321 325 325 328 327
285 180 219 295 252 261 276 183 113 86 281 168 178 204 206 212 309 254 318 326 258 253 240 236 242 242 244 245 249 251 260 271 280 288 301 310 315 318 319 317 318 319 320 321
172 205 220 228 269 281 253 148 144 194 256 182 182 192 207 203 226 287 293 289 271 248 233 236 244 246 250 250 255 257 264 277 282 289 296 306 313 316 317 317 316 316 317 315
174 169 195 189 221 263 147 120 175 219 170 191 206 215 231 252 273 277 280 284 278 251 244 243 240 240 241 247 255 256 262 270 278 283 294 306 313 318 317 319 321 320 318 314
225 201 199 194 220 235 188 226 234 235 244 229 234 248 264 277 283 284 284 280 279 265 252 252 247 242 243 251 256 258 263 267 275 280 292 304 309 311 311 311 313 314 316 310
235 251 237 359 250 255 265 256 259 254 257 261 265 272 276 275 285 288 286 282 282 273 260 255 249 245 245 250 255 257 258 264 270 280 291 299 306 308 309 308 310 307 310 303
226 148 229 261 269 273 268 268 271 276 260 258 263 259 263 265 278 277 279 280 276 277 274 263 256 251 249 251 252 252 254 262 268 276 283 290 294 298 303 307 307 307 308 302
224 232 227 255 255 263 273 284 288 269 268 269 254 257 259 264 278 272 270 279 276 268 266 264 260 254 248 247 250 251 254 259 265 272 278 285 291 296 299 302 305 305 303 304
Height
1531 1537 1539 1537 1537 1538 1538 1538 1533 1524 1520 1520 1516 1510 1502 1498 1497 1497 1497 1497 1495 1496 1492 1489 1485 1482 1478 1478 1476 1475 1473 1474 1475 1476 1477 1479 1480 1484 1486 1489 1491 1495 1496 1498
1534 1540 1538 1538 1538 1538 1536 1538 1528 1519 1519 1522 1512 1505 1495 1491 1495 1497 1500 1500 1495 1493 1489 1485 1480 1476 1474 1472 1470 1469 1468 1468 1468 1471 1472 1474 1476 1479 1480 1484 1486 1489 1491 1493
1534 1539 1539 1539 1536 1531 1528 1526 1530 1537 1526 1513 1512 1501 1491 1493 1494 1495 1497 1498 1495 1492 1487 1482 1477 1475 1472 1469 1465 1462 1462 1462 1463 1464 1468 1470 1471 1474 1476 1479 1480 1484 1487 1488
1537 1539 1539 1537 1533 1529 1530 1530 1532 1532 1533 1536 1518 1528 1494 1493 1492 1495 1498 1496 1493 1490 1487 1482 1477 1473 1469 1464 1461 1458 1457 1457 1457 1460 1462 1464 1466 1467 1469 1475 1478 1481 1483 1484
1537 1536 1535 1534 1530 1532 1530 1529 1530 1529 1534 1531 1514 1530 1498 1497 1497 1496 1497 1496 1492 1488 1484 1480 1476 1472 1466 1461 1456 1453 1452 1451 1452 1454 1457 1459 1461 1463 1464 1472 1472 1472 1479 1480
1534 1535 1536 1533 1533 1533 1532 1530 1530 1528 1532 1533 1516 1522 1505 1503 1501 1497 1494 1490 1488 1488 1485 1480 1475 1470 1464 1457 1452 1448 1446 1446 1448 1449 1452 1455 1457 1460 1463 1463 1469 1469 1477 1476
1532 1532 1533 1534 1533 1531 1531 1535 1529 1534 1531 1532 1513 1524 1497 1494 1494 1494 1492 1488 1489 1487 1482 1478 1474 1468 1461 1454 1448 1444 1443 1443 1443 1446 1447 1451 1454 1456 1459 1461 1463 1466 1468 1467
1539 1544 1532 1532 1532 1533 1530 1536 1537 1539 1536 1527 1512 1517 1495 1487 1488 1488 1487 1484 1487 1484 1481 1477 1472 1466 1460 1455 1448 1444 1444 1442 1442 1442 1444 1446 1450 1451 1454 1457 1457 1461 1463 1464
1538 1531 1528 1530 1530 1532 1529 1536 1532 1536 1526 1528 1512 1490 1487 1485 1486 1484 1481 1481 1483 1479 1478 1475 1469 1465 1459 1456 1451 1447 1444 1443 1442 1442 1443 1445 1447 1449 1451 1453 1455 1458 1460 1461
1536 1544 1524 1528 1529 1528 1530 1531 1536 1539 1529 1528 1505 1497 1494 1487 1484 1479 1478 1480 1479 1477 1475 1471 1469 1465 1462 1458 1454 1451 1446 1444 1442 1443 1444 1446 1447 1448 1450 1452 1452 1456 1457 1458
1536 1537 1530 1525 1527 1524 1532 1531 1529 1527 1528 1530 1524 1501 1471 1479 1477 1477 1475 1476 1475 1475 1474 1471 1469 1466 1463 1460 1456 1453 1450 1447 1444 1443 1443 1445 1447 1448 1450 1451 1452 1454 1455 1454
1535 1536 1541 1523 1514 1515 1518 1518 1518 1539 1520 1523 1521 1502 1466 1470 1472 1473 1472 1472 1472 1473 1471 1470 1467 1465 1464 1463 1460 1456 1454 1449 1446 1445 1444 1444 1446 1447 1449 1449 1450 1450 1451 1450
1535 1538 1546 1523 1521 1519 1520 1514 1516 1516 1529 1528 1525 1495 1465 1466 1469 1469 1469 1469 1469 1470 1470 1469 1468 1466 1465 1463 1461 1458 1456 1454 1451 1449 1446 1445 1445 1445 1445 1445 1446 1446 1446 1446
1537 1533 1533 1539 1516 1517 1519 1514 1512 1518 1534 1515 1499 1478 1467 1465 1465 1464 1463 1463 1465 1466 1466 1466 1466 1465 1464 1462 1460 1458 1457 1455 1453 1452 1451 1449 1448 1447 1447 1447 1447 1447 1447 1447
1538 1535 1529 1524 1515 1513 1510 1508 1509 1512 1507 1510 1478 1479 1468 1467 1465 1461 1458 1458 1460 1462 1463 1463 1463 1463 1462 1461 1459 1458 1457 1456 1454 1453 1452 1451 1450 1449 1448 1447 1446 1446 1446 1445
1532 1535 1527 1521 1506 1504 1500 1494 1495 1494 1493 1491 1487 1480 1467 1464 1460 1457 1455 1456 1456 1457 1458 1459 1459 1459 1459 1459 1458 1457 1456 1455 1454 1453 1452 1451 1450 1449 1448 1447 1446 1445 1444 1443
1530 1533 1533 1523 1505 1501 1497 1473 1476 1479 1475 1477 1483 1459 1462 1461 1458 1456 1455 1454 1453 1453 1455 1455 1456 1456 1456 1456 1455 1454 1454 1453 1452 1451 1450 1449 1448 1446 1445 1444 1444 1442 1441 1440
1526 1528 1531 1527 1511 1513 1469 1465 1466 1466 1464 1466 1462 1459 1459 1457 1455 1452 1450 1449 1448 1448 1449 1450 1450 1450 1451 1451 1451 1451 1451 1451 1451 1450 1449 1448 1446 1446 1444 1443 1442 1440 1439 1437
1520 1529 1534 1530 1518 1489 1463 1464 1463 1463 1459 1452 1454 1456 1456 1455 1452 1447 1445 1443 1444 1446 1446 1446 1446 1446 1447 1448 1448 1449 1449 1449 1449 1448 1447 1446 1445 1444 1442 1441 1439 1437 1435 1434
1520 1522 1528 1518 1521 1499 1459 1461 1462 1462 1467 1443 1443 1447 1449 1450 1456 1445 1441 1440 1440 1441 1441 1440 1441 1441 1441 1443 1444 1446 1447 1447 1447 1446 1445 1444 1442 1440 1438 1437 1435 1434 1432 1431
1522 1521 1523 1524 1523 1489 1456 1458 1463 1468 1455 1442 1443 1445 1446 1447 1444 1441 1439 1438 1438 1436 1436 1437 1438 1439 1441 1442 1443 1443 1444 1444 1443 1443 1442 1440 1439 1437 1435 1434 1432 1431 1429 1428
1507 1515 1517 1515 1510 1494 1451 1460 1464 1445 1439 1440 1441 1441 1441 1439 1437 1436 1435 1434 1434 1433 1432 1432 1432 1433 1435 1436 1437 1438 1438 1439 1439 1439 1439 1438 1436 1434 1432 1431 1429 1428 1427 1425
1493 1481 1483 1482 1467 1445 1444 1440 1439 1439 1438 1439 1439 1440 1439 1436 1434 1433 1431 1430 1429 1430 1430 1429 1430 1431 1431 1432 1433 1434 1435 1435 1436 1435 1435 1434 1433 1431 1430 1428 1426 1424 1423 1422
1473 1469 1472 1465 1442 1442 1442 1438 1434 1434 1433 1433 1434 1433 1433 1431 1431 1430 1428 1426 1425 1425 1425 1425 1426 1426 1426 1426 1428 1429 1430 1429 1430 1431 1431 1430 1429 1428 1426 1424 1423 1421 1419 1417
1466 1464 1460 1451 1437 1439 1434 1429 1427 1427 1426 1425 1424 1424 1424 1424 1422 1422 1421 1421 1420 1419 1419 1418 1418 1419 1421 1422 1423 1424 1425 1426 1427 1426 1426 1425 1424 1424 1423 1422 1420 1418 1416 1414
1452 1446 1454 1436 1421 1429 1424 1423 1422 1422 1420 1420 1419 1418 1417 1417 1414 1414 1413 1413 1412 1411 1411 1411 1411 1412 1414 1416 1419 1420 1420 1421 1422 1422 1422 1421 1421 1421 1420 1418 1416 1415 1413 1411